Location: Newark
(28.5667°N, 77.2000°E)
Time: 03:54:09
(UTC+00:00)

Hubble Space Telescope - Visible Passes

Search period start: 08 August 2020 00:00
Search period end: 18 August 2020 00:00
Orbit: 536 x 540 km, 28.5° (Epoch: 07 August)

Date Brightness Start Highest point End Pass type
(mag) Time Alt. Az. Time Alt. Az. Time Alt. Az.
08 Aug 3.3 22:02:12 13° SE 22:02:12 13° SE 22:03:06 10° ESE visible
08 Aug 1.2 23:37:31 12° WSW 23:41:14 51° SSE 23:45:15 10° E visible
09 Aug 3.4 21:52:04 13° ESE 21:52:04 13° ESE 21:52:48 10° ESE visible
09 Aug 1.0 23:27:23 16° WSW 23:30:31 60° SSE 23:34:35 10° E visible
10 Aug 3.6 21:41:55 12° ESE 21:41:55 12° ESE 21:42:21 10° E visible
10 Aug 0.8 23:17:15 22° WSW 23:19:49 69° S 23:23:55 10° E visible
11 Aug 3.8 21:31:46 10° E 21:31:46 10° E 21:31:49 10° E visible
11 Aug 0.7 23:07:06 29° WSW 23:09:07 77° S 23:13:14 10° E visible
12 Aug 0.6 22:56:58 39° WSW 22:58:25 83° S 23:02:33 10° E visible
13 Aug 0.6 22:46:51 54° W 22:47:44 88° S 22:51:52 10° E visible
14 Aug 0.6 22:36:47 78° W 22:37:03 90° N 22:41:11 10° E visible
15 Aug 0.8 22:26:46 72° E 22:26:46 72° E 22:30:30 10° E visible
16 Aug 1.6 22:16:50 46° E 22:16:50 46° E 22:19:48 10° E visible
16 Aug 1.1 23:52:48 10° W 23:56:47 48° SSW 00:00:46 10° ESE visible
17 Aug 2.4 22:07:00 29° E 22:07:00 29° E 22:09:07 10° E visible
17 Aug 1.3 23:42:21 11° W 23:46:03 40° SSW 23:49:56 10° SE visible
